Hourly Weather Kimyogarlar

Today, 23 April, Friday

Time Temperature Precipitation Wind Pressure Humidity
00:00 +10°C° 0 mm 3 mps 706 mmHg 52%
01:00 +9°C° 0 mm 3 mps 705 mmHg 53%
02:00 +9°C° 0 mm 3 mps 705 mmHg 53%
03:00 +9°C° 0 mm 3 mps 705 mmHg 53%
04:00 +9°C° 0 mm 3 mps 705 mmHg 53%
05:00 +11°C° 0 mm 3 mps 705 mmHg 49%
06:00 +13°C° 0 mm 3 mps 705 mmHg 44%
07:00 +15°C° 0 mm 2 mps 706 mmHg 40%
08:00 +17°C° 0 mm 2 mps 706 mmHg 34%
09:00 +19°C° 0 mm 2 mps 706 mmHg 29%
10:00 +21°C° 0 mm 2 mps 706 mmHg 23%
11:00 +23°C° 0 mm 2 mps 706 mmHg 21%
12:00 +24°C° 0 mm 2 mps 706 mmHg 19%
13:00 +25°C° 0 mm 3 mps 705 mmHg 17%
14:00 +25°C° 0 mm 3 mps 705 mmHg 18%
15:00 +25°C° 0 mm 4 mps 705 mmHg 19%
16:00 +23°C° 0 mm 5 mps 704 mmHg 21%
17:00 +21°C° 0 mm 4 mps 704 mmHg 25%
18:00 +19°C° 0 mm 4 mps 704 mmHg 30%
19:00 +17°C° 0 mm 3 mps 704 mmHg 35%
20:00 +16°C° 0 mm 3 mps 704 mmHg 36%
21:00 +15°C° 0 mm 2 mps 704 mmHg 37%
22:00 +15°C° 0 mm 2 mps 704 mmHg 38%
23:00 +15°C° 0 mm 2 mps 703 mmHg 38%

Tomorrow, 24 April, Saturday

Time Temperature Precipitation Wind Pressure Humidity
00:00 +14°C° 0 mm 2 mps 703 mmHg 38%
01:00 +14°C° 0 mm 2 mps 702 mmHg 39%
02:00 +14°C° 0 mm 2 mps 702 mmHg 38%
03:00 +14°C° 0 mm 2 mps 702 mmHg 38%
04:00 +14°C° 0 mm 2 mps 702 mmHg 37%
05:00 +15°C° 0 mm 2 mps 703 mmHg 36%
06:00 +18°C° 0 mm 1 mps 703 mmHg 34%
07:00 +20°C° 0 mm 1 mps 704 mmHg 32%
08:00 +21°C° 0 mm 1 mps 704 mmHg 30%
09:00 +23°C° 0 mm 2 mps 704 mmHg 27%
10:00 +24°C° 0 mm 2 mps 705 mmHg 24%
11:00 +25°C° 0 mm 2 mps 705 mmHg 22%
12:00 +26°C° 0 mm 3 mps 705 mmHg 19%
13:00 +27°C° 0 mm 3 mps 705 mmHg 17%
14:00 +27°C° 0 mm 3 mps 705 mmHg 16%
15:00 +26°C° 0 mm 3 mps 704 mmHg 16%
16:00 +26°C° 0 mm 2 mps 704 mmHg 16%
17:00 +24°C° 0 mm 2 mps 704 mmHg 21%
18:00 +21°C° 0 mm 2 mps 704 mmHg 26%
19:00 +19°C° 0 mm 2 mps 704 mmHg 31%
20:00 +18°C° 0 mm 2 mps 704 mmHg 32%
21:00 +18°C° 0 mm 2 mps 704 mmHg 34%
22:00 +17°C° 0 mm 2 mps 704 mmHg 35%
23:00 +17°C° 0 mm 2 mps 704 mmHg 35%

Day after tomorrow, 25 April, Sunday

Time Temperature Precipitation Wind Pressure Humidity
00:00 +17°C° 0 mm 2 mps 704 mmHg 35%
01:00 +16°C° 0 mm 2 mps 704 mmHg 35%
02:00 +16°C° 0 mm 2 mps 703 mmHg 35%
03:00 +16°C° 0 mm 2 mps 703 mmHg 36%
04:00 +14°C° 0 mm 3 mps 703 mmHg 37%
05:00 +17°C° 0 mm 2 mps 704 mmHg 36%
06:00 +18°C° 0 mm 2 mps 704 mmHg 35%
07:00 +20°C° 0 mm 2 mps 704 mmHg 34%
08:00 +23°C° 0 mm 2 mps 705 mmHg 31%
09:00 +24°C° 0 mm 2 mps 705 mmHg 27%
10:00 +26°C° 0 mm 2 mps 705 mmHg 23%
11:00 +27°C° 0 mm 3 mps 705 mmHg 22%
12:00 +28°C° 0 mm 3 mps 705 mmHg 20%
13:00 +29°C° 0 mm 4 mps 704 mmHg 19%
14:00 +29°C° 0 mm 4 mps 704 mmHg 20%
15:00 +28°C° 0 mm 5 mps 704 mmHg 22%
16:00 +27°C° 0 mm 5 mps 704 mmHg 23%
17:00 +25°C° 0 mm 4 mps 704 mmHg 26%
18:00 +22°C° 0 mm 4 mps 704 mmHg 29%
19:00 +21°C° 0 mm 3 mps 704 mmHg 32%
20:00 +20°C° 0 mm 3 mps 703 mmHg 33%
21:00 +19°C° 0 mm 3 mps 703 mmHg 33%
22:00 +18°C° 0 mm 3 mps 703 mmHg 34%
23:00 +18°C° 0 mm 3 mps 703 mmHg 36%

26 April, Monday

Time Temperature Precipitation Wind Pressure Humidity
00:00 +18°C° 0 mm 3 mps 703 mmHg 38%
01:00 +17°C° 0 mm 3 mps 702 mmHg 41%
02:00 +17°C° 0 mm 3 mps 702 mmHg 41%
03:00 +17°C° 0 mm 3 mps 702 mmHg 42%
04:00 +17°C° 0 mm 3 mps 702 mmHg 43%
05:00 +18°C° 0 mm 3 mps 702 mmHg 41%
06:00 +19°C° 0 mm 3 mps 702 mmHg 40%
07:00 +20°C° 0 mm 3 mps 703 mmHg 39%
08:00 +22°C° 0 mm 3 mps 703 mmHg 35%
09:00 +23°C° 0 mm 4 mps 703 mmHg 31%
10:00 +26°C° 0 mm 4 mps 703 mmHg 27%
11:00 +27°C° 0 mm 4 mps 703 mmHg 26%
12:00 +28°C° 0 mm 4 mps 702 mmHg 25%
13:00 +29°C° 0 mm 5 mps 702 mmHg 23%
14:00 +28°C° 0 mm 5 mps 702 mmHg 25%
15:00 +28°C° 0 mm 5 mps 702 mmHg 26%
16:00 +27°C° 0 mm 5 mps 702 mmHg 27%
17:00 +25°C° 0 mm 4 mps 701 mmHg 31%
18:00 +24°C° 0 mm 3 mps 701 mmHg 36%
19:00 +21°C° 0 mm 3 mps 701 mmHg 40%
20:00 +20°C° 0 mm 3 mps 700 mmHg 40%
21:00 +20°C° 0 mm 3 mps 700 mmHg 40%
22:00 +19°C° 0 mm 2 mps 700 mmHg 40%
23:00 +19°C° 0 mm 3 mps 700 mmHg 41%

27 April, Tuesday

Time Temperature Precipitation Wind Pressure Humidity
00:00 +19°C° 0 mm 3 mps 700 mmHg 41%
01:00 +19°C° 0 mm 3 mps 699 mmHg 42%
02:00 +19°C° 0 mm 3 mps 699 mmHg 42%
03:00 +18°C° 0 mm 3 mps 699 mmHg 42%
04:00 +18°C° 0 mm 2 mps 699 mmHg 42%
05:00 +20°C° 0 mm 2 mps 699 mmHg 40%
06:00 +23°C° 0 mm 2 mps 700 mmHg 37%
07:00 +25°C° 0 mm 2 mps 700 mmHg 34%
08:00 +27°C° 0 mm 2 mps 700 mmHg 30%
09:00 +29°C° 0 mm 1 mps 700 mmHg 25%
10:00 +31°C° 0 mm 1 mps 701 mmHg 21%
11:00 +32°C° 0 mm 1 mps 700 mmHg 19%
12:00 +32°C° 0 mm 2 mps 700 mmHg 18%
13:00 +34°C° 0 mm 2 mps 700 mmHg 16%
14:00 +34°C° 0 mm 3 mps 700 mmHg 16%
15:00 +34°C° 0 mm 3 mps 700 mmHg 17%
16:00 +34°C° 0 mm 3 mps 700 mmHg 17%
17:00 +30°C° 0 mm 2 mps 699 mmHg 20%
18:00 +28°C° 0 mm 2 mps 699 mmHg 23%
19:00 +26°C° 0 mm 1 mps 699 mmHg 26%
20:00 +25°C° 0 mm 1 mps 699 mmHg 27%
21:00 +25°C° 0 mm 2 mps 699 mmHg 28%
22:00 +24°C° 0 mm 2 mps 699 mmHg 29%
23:00 +24°C° 0 mm 2 mps 699 mmHg 29%

28 April, Wednesday

Time Temperature Precipitation Wind Pressure Humidity
00:00 +23°C° 0 mm 2 mps 699 mmHg 30%
01:00 +23°C° 0 mm 2 mps 699 mmHg 31%
02:00 +23°C° 0 mm 2 mps 699 mmHg 31%
03:00 +21°C° 0 mm 2 mps 699 mmHg 32%
04:00 +21°C° 0 mm 2 mps 699 mmHg 33%
05:00 +24°C° 0 mm 2 mps 700 mmHg 31%
06:00 +26°C° 0 mm 1 mps 700 mmHg 29%
07:00 +27°C° 0 mm 1 mps 701 mmHg 26%
08:00 +29°C° 0 mm 1 mps 701 mmHg 23%
09:00 +31°C° 0 mm 1 mps 701 mmHg 19%
10:00 +33°C° 0 mm 1 mps 701 mmHg 15%
11:00 +34°C° 0 mm 2 mps 701 mmHg 14%
12:00 +35°C° 0 mm 3 mps 701 mmHg 14%
13:00 +36°C° 0 mm 3 mps 701 mmHg 13%
14:00 +35°C° 0 mm 3 mps 700 mmHg 13%
15:00 +35°C° 0 mm 3 mps 700 mmHg 14%
16:00 +35°C° 0 mm 3 mps 700 mmHg 14%
17:00 +32°C° 0 mm 2 mps 700 mmHg 16%
18:00 +29°C° 0 mm 2 mps 700 mmHg 19%
19:00 +27°C° 0 mm 1 mps 699 mmHg 21%
20:00 +26°C° 0 mm 1 mps 699 mmHg 22%
21:00 +26°C° 0 mm 1 mps 699 mmHg 22%
22:00 +25°C° 0 mm 1 mps 699 mmHg 23%
23:00 +24°C° 0 mm 1 mps 699 mmHg 23%
Show more